This is the latest recevied weather packets stored in our database for station/object KK4KTV-13. If no packets are shown the sender has not sent any weather packets the latest 10 day(s).
| Time | Temp. | Humidity | Pressure | Rain* | Wind** | Luminosity | Snow |
|---|---|---|---|---|---|---|---|
| 1777589563 | 16.67° C | 45% | 1013.9 hPa | 0 mm | - | 121 W/m² | - |
| 1777589261 | 16.67° C | 45% | 1013.9 hPa | 0 mm | - | 132 W/m² | - |
| 1777588959 | 16.11° C | 44% | 1013.9 hPa | 0 mm | - | 146 W/m² | - |
| 1777588654 | 16.11° C | 45% | 1013.8 hPa | 0 mm | - | 160 W/m² | - |
| 1777588350 | 16.11° C | 45% | 1013.8 hPa | 0 mm | - | 174 W/m² | - |
| 1777588046 | 16.67° C | 44% | 1013.5 hPa | 0 mm | - | 183 W/m² | - |
| 1777587742 | 16.67° C | 48% | 1013.6 hPa | 0 mm | - | 203 W/m² | - |
| 1777587435 | 16.67° C | 47% | 1013.7 hPa | 0 mm | - | 216 W/m² | - |
| 1777587133 | 17.22° C | 47% | 1013.5 hPa | 0 mm | - | 235 W/m² | - |
| 1777586828 | 17.22° C | 45% | 1013.8 hPa | 0 mm | - | 228 W/m² | - |
| 1777586524 | 16.67° C | 44% | 1013.8 hPa | 0 mm | - | 261 W/m² | - |
| 1777586219 | 16.67° C | 45% | 1013.7 hPa | 0 mm | - | 281 W/m² | - |
| 1777585918 | 16.67° C | 47% | 1013.6 hPa | 0 mm | - | 287 W/m² | - |
| 1777585617 | 16.67° C | 46% | 1013.7 hPa | 0 mm | - | 312 W/m² | - |
| 1777585313 | 16.67° C | 46% | 1013.9 hPa | 0 mm | - | 308 W/m² | - |
| 1777585008 | 16.67° C | 46% | 1013.8 hPa | 0 mm | - | 321 W/m² | - |
| 1777584705 | 16.67° C | 46% | 1013.8 hPa | 0 mm | - | 348 W/m² | - |
| 1777584402 | 16.67° C | 43% | 1013.7 hPa | 0 mm | - | 364 W/m² | - |
| 1777584099 | 16.67° C | 43% | 1013.6 hPa | 0 mm | - | 377 W/m² | - |
| 1777583798 | 16.67° C | 46% | 1013.6 hPa | 0 mm | - | 393 W/m² | - |
| 1777583493 | 16.67° C | 45% | 1013.7 hPa | 0 mm | - | 415 W/m² | - |
| 1777583187 | 16.67° C | 45% | 1013.7 hPa | 0 mm | - | 341 W/m² | - |
| 1777582882 | 17.22° C | 46% | 1013.9 hPa | 0 mm | - | 447 W/m² | - |
| 1777582580 | 17.22° C | 44% | 1013.9 hPa | 0 mm | - | 452 W/m² | - |
| 1777582275 | 16.67° C | 48% | 1013.9 hPa | 0 mm | - | 465 W/m² | - |
* Rain latest hour (hover to see other rain measurements)
** Current wind speed in m/s (hover to see current wind gust speed)